This is the latest recevied weather packets stored in our database for station/object W4GAP. If no packets are shown the sender has not sent any weather packets the latest 10 day(s).
| Time | Temp. | Humidity | Pressure | Rain* | Wind** | Luminosity | Snow |
|---|---|---|---|---|---|---|---|
| 1777321610 | 21.67° C | 59% | 1016.9 hPa | 0 mm | - | 50 W/m² | - |
| 1777321307 | 21.11° C | 60% | 1017.2 hPa | 0 mm | - | 38 W/m² | - |
| 1777321004 | 21.67° C | 59% | 1017.1 hPa | 0 mm | - | 46 W/m² | - |
| 1777320702 | 21.67° C | 59% | 1017.1 hPa | 0 mm | - | 49 W/m² | - |
| 1777320399 | 21.67° C | 59% | 1016.9 hPa | 0 mm | - | 98 W/m² | - |
| 1777320095 | 21.11° C | 59% | 1017.1 hPa | 0 mm | - | 37 W/m² | - |
| 1777319792 | 21.67° C | 59% | 1017 hPa | 0 mm | - | 55 W/m² | - |
| 1777319489 | 21.67° C | 60% | 1016.9 hPa | 0 mm | - | 90 W/m² | - |
| 1777319187 | 21.11° C | 61% | 1017 hPa | 0 mm | - | 134 W/m² | - |
| 1777318883 | 21.11° C | 60% | 1017 hPa | 0 mm | - | 111 W/m² | - |
| 1777318580 | 21.67° C | 60% | 1017.1 hPa | 0 mm | - | 184 W/m² | - |
| 1777318277 | 21.11° C | 60% | 1017.4 hPa | 0 mm | - | 123 W/m² | - |
| 1777317973 | 20.56° C | 61% | 1017.2 hPa | 0 mm | - | 317 W/m² | - |
| 1777317671 | 21.11° C | 60% | 1017.4 hPa | 0 mm | - | 417 W/m² | - |
| 1777317368 | 21.11° C | 61% | 1017.4 hPa | 0 mm | - | 328 W/m² | - |
| 1777317063 | 21.11° C | 59% | 1017.4 hPa | 0 mm | - | 599 W/m² | - |
| 1777316761 | 21.11° C | 61% | 1017.4 hPa | 0 mm | - | 609 W/m² | - |
| 1777316456 | 21.11° C | 61% | 1017.3 hPa | 0 mm | - | 585 W/m² | - |
| 1777316154 | 20.56° C | 61% | 1017.4 hPa | 0 mm | - | 646 W/m² | - |
| 1777315852 | 20.56° C | 62% | 1017.5 hPa | 0 mm | - | 649 W/m² | - |
| 1777315550 | 21.11° C | 61% | 1017.7 hPa | 0 mm | - | 674 W/m² | - |
| 1777315248 | 21.11° C | 61% | 1017.7 hPa | 0 mm | - | 595 W/m² | - |
| 1777314945 | 21.11° C | 61% | 1017.6 hPa | 0 mm | - | 505 W/m² | - |
| 1777314640 | 21.11° C | 61% | 1017.7 hPa | 0 mm | - | 615 W/m² | - |
| 1777314338 | 20° C | 62% | 1017.8 hPa | 0 mm | - | 612 W/m² | - |
* Rain latest hour (hover to see other rain measurements)
** Current wind speed in m/s (hover to see current wind gust speed)